GSAT0211 (GALILEO 14) 1 41549U 16030A 21112.62030860 .00000009 00000-0 00000-0 0 9994 2 41549 56.0610 273.4631 0003108 348.0464 11.9149 1.70475061 30593 GSAT0210 (GALILEO 13) 1 41550U 16030B 21111.73998464 .00000013 00000-0 00000-0 0 9995 2 41550 56.0615 273.4889 0001617 312.3022 47.6560 1.70475159 30571 FREGAT R/B 1 41551U 16030C 21112.27315243 .00000011 00000-0 00000-0 0 9992 2 41551 56.0199 275.1363 0018246 223.3461 136.4809 1.67597773 30081